Printer-friendly version

IAU Minor Planet Center

Minor Planet Center

MPEC 2007-W16 : 2007 VP243

The following Minor Planet Electronic Circular may be linked-to from your own Web pages, but must not otherwise be redistributed electronically.


Read MPEC 2007-W15 Read MPEC 2007-W17


M.P.E.C. 2007-W16                                Issued 2007 Nov. 17, 22:09 UT

     The Minor Planet Electronic Circulars contain information on unusual
         minor planets and routine data on comets.  They are published
   on behalf of Commission 20 of the International Astronomical Union by the
          Minor Planet Center, Smithsonian Astrophysical Observatory,
                          Cambridge, MA 02138, U.S.A.

             Prepared using the Tamkin Foundation Computer Network

                              MPC@CFA.HARVARD.EDU
          URL http://www.cfa.harvard.edu/iau/mpc.html  ISSN 1523-6714

                                  2007 VP243

Observations:
     K07VO3P* C2007 11 15.26549 03 01 43.35 +28 47 51.5          21.0 V EW016G96
     K07VO3P  C2007 11 15.27101 03 01 42.85 +28 47 49.8          20.6 V EW016G96
     K07VO3P  C2007 11 15.27660 03 01 42.31 +28 47 47.4          20.7 V EW016G96
     K07VO3P  C2007 11 15.28215 03 01 41.70 +28 47 45.6          20.9 V EW016G96
     K07VO3P  C2007 11 16.16774403 00 25.13 +28 42 13.7          21.0 V EW016H55
     K07VO3P  C2007 11 16.17168403 00 24.84 +28 42 12.0          21.2 V EW016H55
     K07VO3P  C2007 11 16.17562303 00 24.46 +28 42 10.4          21.4 V EW016H55
     K07VO3P  C2007 11 16.28061 03 00 15.18 +28 41 32.8          20.8 R EW016682
     K07VO3P  C2007 11 16.30974 03 00 12.54 +28 41 19.0          20.9 R EW016682
     K07VO3P  C2007 11 16.33887 03 00 09.85 +28 41 09.0          20.8 R EW016682
     K07VO3P  C2007 11 17.23040 02 58 57.21 +28 35 35.0          21.7 V EW016G96
     K07VO3P  C2007 11 17.23584 02 58 56.74 +28 35 32.7          21.2 V EW016G96
     K07VO3P  C2007 11 17.24102 02 58 56.28 +28 35 30.7          21.0 V EW016G96
     K07VO3P  C2007 11 17.24613 02 58 55.77 +28 35 29.2          21.2 V EW016G96

Observer details:
682 Kanab.  Observer E. Sheridan.  0.36-m f/5.5 Schmidt-Cassegrain + CCD.
G96 Mt. Lemmon Survey.  Observers A. Boattini, A. D. Grauer.  Measurers
    E. C. Beshore, A. Boattini, G. J. Garradd, A. R. Gibbs, A. D. Grauer,
    R. E. Hill, R. A. Kowalski, S. M. Larson, R. H. McNaught.  1.5-m reflector
    + CCD.
H55 Astronomical Research Observatory, Charleston.  Observer R. Holmes.
    0.61-m f/4.0 astrograph + CCD.

Orbital elements:
2007 VP243                                          PHA, Earth MOID = 0.0219 AU
Epoch 2007 Oct. 27.0 TT = JDT 2454400.5                 MPC
M  23.60203              (2000.0)            P               Q
n   0.35313113     Peri.  313.12427     +0.83707143     +0.54666677
a   1.9823426      Node    13.78300     -0.47193066     +0.74148486
e   0.5197739      Incl.    5.20343     -0.27675417     +0.38904453
P   2.79           H   21.7           G   0.15           U   9
Residuals in seconds of arc
071115 G96  0.2-  0.1-    071116 H55  0.6+  0.4+    071117 G96  0.1+  0.3+
071115 G96  0.3+  0.2+    071116 H55  0.4+  0.2+    071117 G96  0.2+  0.0
071115 G96  0.4+  0.1-    071116 682  0.7-  0.8+    071117 G96  0.2+  0.1-
071115 G96  0.5-  0.1+    071116 682  0.1+  1.9-    071117 G96  0.5-  0.2+
071116 H55  0.4-  0.7+    071116 682  0.1+  0.6-

Ephemeris:
2007 VP243               a,e,i = 1.98, 0.52, 5                   q = 0.9520
Date    TT    R. A. (2000) Decl.     Delta      r     Elong.  Phase     V
2007 11 16    03 00.65   +28 43.3    0.409    1.393   168.6     8.1    21.0
2007 11 17    02 59.26   +28 37.1    0.417    1.400   168.3     8.2    21.1
2007 11 18    02 57.94   +28 30.7    0.425    1.407   167.9     8.5    21.2
2007 11 19    02 56.68   +28 24.3    0.434    1.415   167.3     8.8    21.2
2007 11 20    02 55.50   +28 17.9    0.442    1.422   166.7     9.2    21.3
2007 11 21    02 54.39   +28 11.5    0.451    1.430   165.9     9.7    21.4
2007 11 22    02 53.34   +28 05.1    0.460    1.437   165.2    10.1    21.5
2007 11 23    02 52.36   +27 58.7    0.469    1.445   164.3    10.6    21.5
2007 11 24    02 51.45   +27 52.3    0.478    1.452   163.4    11.2    21.6
2007 11 25    02 50.60   +27 46.0    0.487    1.459   162.5    11.7    21.7
2007 11 26    02 49.82   +27 39.8    0.497    1.467   161.6    12.3    21.7
2007 11 27    02 49.10   +27 33.7    0.506    1.474   160.7    12.8    21.8
2007 11 28    02 48.44   +27 27.6    0.516    1.482   159.7    13.4    21.9
2007 11 29    02 47.85   +27 21.7    0.526    1.489   158.7    13.9    22.0
2007 11 30    02 47.31   +27 15.8    0.536    1.497   157.8    14.4    22.0
2007 12 01    02 46.83   +27 10.1    0.547    1.504   156.8    15.0    22.1
2007 12 02    02 46.40   +27 04.5    0.557    1.511   155.8    15.5    22.2
2007 12 03    02 46.04   +26 59.1    0.568    1.519   154.8    16.0    22.2
2007 12 04    02 45.73   +26 53.8    0.578    1.526   153.8    16.6    22.3
2007 12 05    02 45.47   +26 48.6    0.589    1.534   152.8    17.1    22.4
2007 12 06    02 45.27   +26 43.6    0.600    1.541   151.9    17.5    22.5

Timothy B. Spahr             (C) Copyright 2007 MPC           M.P.E.C. 2007-W16

Read MPEC 2007-W15 Read MPEC 2007-W17


Our Web policy. Index to the CBAT/MPC/ICQ pages.


Valid HTML 4.01!